Zurück zum Katalog

COSMOS 1233

AktivNavigationLEO
NORAD 12112·PAYLOAD·🇷🇺 Russia

Gestartet Dec 23, 1980 von Plesetsk Cosmodrome

Loading…

Nächste Überflüge (nächste 24 Stunden)

TLE

AktuellSource: Space-Track

Epoche: Sep 14, 2026, 14:11 UTC

1 12112U 80102F   26257.59157836 -.00000005  00000-0  70997-4 0  9996
2 12112  73.9929 294.0339 0029677 346.4712 181.4777 12.55586407 95750

Verfolge COSMOS 1233 in Echtzeit mit AllMySat

Download on the App Store